Home > Weather > Germering > Past weeks

Flag for Germany Past Weather in Germering, Bavaria, Germany — Yesterday and Last 2 Weeks

Now
59 °F

Sunny.


Feels Like: 58 °F
Forecast: 57 / 80 °F
Wind: 6 mph from East

Location: Oberpfaffenhofen

Current Time: Aug 24, 2016 at 8:35:43 AM

Latest Report: Aug 24, 2016 at 7:50 AM


Visibility: 10 mi

Pressure: 30.27 "Hg (28.40 "Hg at 538m altitude)

Humidity: 94%

Dew Point: 57 °F

Location of GermeringLocation

Past Weather in Germering — Graph

°F

Germering Temperature Yesterday

Maximum temperature yesterday: 75 °F (at 3:20 PM)
Minimum temperature yesterday: 50 °F (at 6:50 AM)
Average temperature yesterday: 69 °F

High & Low Weather Summary for the Past Weeks

 TemperatureHumidityPressure
High79 °F (Aug 16, 2:50 PM)100% (Aug 9, 7:50 AM)30.42 "Hg (Aug 9, 7:50 AM)
Low48 °F (Aug 11, 6:50 AM)42% (Aug 11, 5:50 PM)29.83 "Hg (Aug 18, 2:50 PM)
Average64 °F74%30.14 "Hg
* Reported Aug 9 7:20 AM — Aug 24 7:20 AM, Germering, Weather by CustomWeather, © 2016

Note: Actual official high and low records may vary slightly from our data, if they occured in-between our weather recording intervals... More about our weather records

Advertising

Germering Weather History for the Previous 24 Hours

Scroll right to see more
 ConditionsComfort  
Time TempWeatherWind HumidityBarometerVisibility
7:20 AM
Wed, Aug 24
55 °FClear.3 mph100%30.27 "Hg10 mi
6:50 AM54 °FClear.3 mph100%30.27 "Hg10 mi
6:50 PM
Tue, Aug 23
73 °FSunny.8 mph57%30.30 "Hg10 mi
6:20 PM73 °FSunny.10 mph61%30.33 "Hg10 mi
5:50 PM75 °FSunny.6 mph54%30.33 "Hg10 mi
5:20 PM75 °FSunny.3 mph54%30.33 "Hg10 mi
4:50 PM75 °FSunny.7 mph54%30.33 "Hg10 mi
4:20 PM75 °FSunny.7 mph54%30.33 "Hg10 mi
3:50 PM75 °FSunny.9 mph50%30.33 "Hg10 mi
3:20 PM75 °FSunny.5 mph54%30.36 "Hg10 mi
2:50 PM73 °FSunny.3 mph50%30.36 "Hg10 mi
2:20 PM73 °FPassing clouds.7 mph53%30.36 "HgN/A
1:50 PM73 °FSunny.7 mph50%30.36 "Hg10 mi
1:20 PM72 °FSunny.6 mph53%30.36 "Hg10 mi
12:50 PM72 °FPassing clouds.5 mph57%30.39 "HgN/A
12:20 PM70 °FPassing clouds.6 mph60%30.39 "HgN/A
11:50 AM70 °FSunny.6 mph60%30.39 "Hg10 mi
11:20 AM70 °FSunny.2 mph57%30.42 "Hg10 mi
10:50 AM68 °FSunny.3 mph60%30.42 "Hg10 mi
10:20 AM66 °FSunny.3 mph60%30.42 "Hg10 mi
9:50 AM66 °FSunny.1 mph68%30.42 "Hg10 mi
9:20 AM64 °FSunny.2 mph73%30.42 "Hg10 mi
8:50 AM63 °FSunny.No wind77%30.42 "Hg10 mi
8:20 AM59 °FSunny.3 mph88%30.42 "Hg10 mi
Weather by CustomWeather, © 2016

See weather overviewHow to use our weather pages